Regional Weather Roundup
Issued by NWS State College, PA

Home | Current Version | Previous Version | Graphics & Text | Print | Product List | Glossary On
Versions: 1 2 3 4 5 6 7 8 9 10 11 12 13 14 15 16 17 18 19 20 21 22 23 24 25 26 27 28 29 30 31 32 33 34 35 36 37 38 39 40 41 42 43 44 45 46 47 48 49 50
000
ASUS41 KCTP 062110
RWRCTP

REGIONAL WEATHER ROUNDUP
NATIONAL WEATHER SERVICE STATE COLLEGE PA
500 PM EDT WED MAY 06 2015

Note: "fair" indicates few or no clouds below 12,000 feet with no
significant weather and/or obstructions to visibility.

* = STATION THAT DOES NOT REPORT PRECIPITATION /E.G. RAIN...SNOW...ETC/
    THUNDER OR FOG.

PAZ002>004-007>009-013>016-020>023-029>032-062200-
WESTERN PENNSYLVANIA

CITY           SKY/WX    TMP DP  RH WIND       PRES   REMARKS
ERIE           MOSUNNY   65  56  72 N6        30.19F
MEADVILLE      PTSUNNY   73  57  57 W6        30.18F
FRANKLIN*      PTSUNNY   73  57  56 W3        30.19F
NEW CASTLE     FAIR      81  63  54 N9        30.14F
BEAVER COUNTY  PTSUNNY   79  57  47 NW8G16    30.15F
BUTLER*        MOSUNNY   79  57  47 N8        30.16S
PITTSBURGH INT PTSUNNY   82  54  37 W12       30.13F
PITTSBURGH     MOSUNNY   80  50  34 VRB7G16   30.12F
INDIANA*       MOSUNNY   68  64  88 E9        30.19F
LATROBE        PTSUNNY   81  55  41 W12       30.14F
WASHINGTON CO* MOSUNNY   82  55  39 W7        30.16F
$$

PAZ004>006-010>012-017>019-024>028-033>037-041-042-045-046-049>053-062200-
CENTRAL PENNSYLVANIA

CITY           SKY/WX    TMP DP  RH WIND       PRES   REMARKS
BRADFORD       CLOUDY    58  55  90 SE6       30.22F
DUBOIS         CLOUDY    70  58  65 NE10      30.19F
CLEARFIELD     CLOUDY    63  57  81 E9        30.21F
JOHNSTOWN      PTSUNNY   66  54  65 NE17G26   30.18R
ALTOONA        LGT RAIN  69  59  70 NE9       30.19R
STATE COLLEGE  CLOUDY    61  57  88 NE8       30.22F HAZE
WILLIAMSPORT   CLOUDY    61  53  75 E3        30.23F
SELINSGROVE    CLOUDY    60  54  80 NE7       30.24F
FT INDIANTOWN  CLOUDY    65  52  62 NE3       30.22S
CAPITAL CITY   CLOUDY    71  52  50 E9        30.20R
HARRISBURG     CLOUDY    71  53  52 E9        30.19S
YORK           PTSUNNY   75  54  47 NE12      30.17F
$$

PAZ038>040-043-044-047-048-054-055-060>062-067>071-062200-
EASTERN PENNSYLVANIA

CITY           SKY/WX    TMP DP  RH WIND       PRES   REMARKS
SCRANTON       CLOUDY    67  49  52 N8        30.23F
MOUNT POCONO   CLOUDY    62  44  51 S7        30.25F
ALLENTOWN      CLOUDY    66  50  56 E5        30.24F
QUAKERTOWN*    CLOUDY    63  48  59 NE5       30.25S
READING        CLOUDY    64  49  57 NE8       30.21F
LANCASTER      PTSUNNY   67  52  58 NE14      30.20S
COATESVILLE    PTCLDY    72  48  43 E8G16     30.22S
POTTSTOWN      CLOUDY    65  46  50 NE9       30.23F
BLUE BELL      PTSUNNY   70  45  40 NE6       30.22S
DOYLESTOWN     CLOUDY    64  43  46 VRB7      30.23S
WILLOW GROVE   NOT AVBL
NORTH PHILA    CLOUDY    70  42  36 E13       30.23F
PHILADELPHIA   CLOUDY    74  49  41 E9        30.20F
$$



USA.gov is the U.S. government's official web portal to all federal, state and local government web resources and services.